This demonstration page uses our WeatherBlox Daily Observations layout. Learn more.

Hourly Observations for January 9, 2015

Temp ( °F °C ) Dew Point ( °F °C ) Humidity (%) Winds ( mph kmh ) Pressure ( in mb ) Visibility ( mi km ) Precip ( " mm )
12:15 am 00:15 Clear 17 -8.3 4 -15.6 56 56 N 16 26 30.62 1037 10 16.0934 0 0
12:35 am 00:35 Clear 16 -8.7 3 -16 56 56 NNW 13 20 30.68 1039 10 16.0934 0 0
12:55 am 00:55 Partly Cloudy 16 -9 3 -16.1 57 57 NNW 16 26 30.68 1039 10 16.0934 0 0
1:15 am 01:15 Mostly Cloudy 15 -9.3 2 -16.4 57 57 NNW 13 20 30.68 1039 10 16.0934 0 0
1:35 am 01:35 Cloudy 15 -9.6 2 -16.8 56 56 NNW 17 28 30.68 1039 10 16.0934 0 0
1:55 am 01:55 Mostly Cloudy 14 -10.1 1 -17.1 57 57 NNW 14 22 30.68 1039 10 16.0934 0 0
2:15 am 02:15 Partly Cloudy 13 -10.7 1 -17.4 58 58 NNW 13 20 30.71 1040 10 16.0934 0 0
2:35 am 02:35 Clear 12 -11 -1 -18.2 56 56 NNW 15 24 30.74 1041 10 16.0934 0 0
2:55 am 02:55 Clear 11 -11.8 0 -17.9 61 61 NNW 8 13 30.74 1041 10 16.0934 0 0
3:15 am 03:15 Clear 11 -11.8 -1 -18.1 60 60 NW 14 22 30.74 1041 10 16.0934 0 0
3:35 am 03:35 Clear 11 -11.9 -2 -18.8 57 57 NNW 12 19 30.74 1041 10 16.0934 0 0
3:55 am 03:55 Clear 10 -12.5 -1 -18.5 61 61 NNW 7 11 30.74 1041 10 16.0934 0 0
4:15 am 04:15 Clear 8 -13.2 -1 -18.2 66 66 NW 8 13 30.71 1040 10 16.0934 0 0
4:35 am 04:35 Clear 8 -13.3 -2 -18.7 64 64 WNW 10 17 30.71 1040 10 16.0934 0 0
4:55 am 04:55 Clear 8 -13.3 -3 -19.3 61 61 WNW 9 15 30.71 1040 10 16.0934 0 0
5:15 am 05:15 Clear 8 -13.5 -3 -19.7 60 60 WNW 8 13 30.71 1040 10 16.0934 0 0
5:35 am 05:35 Clear 8 -13.5 -4 -19.9 59 59 WNW 10 17 30.71 1040 10 16.0934 0 0
5:55 am 05:55 Clear 7 -13.8 -4 -20 60 60 WNW 7 11 30.74 1041 10 16.0934 0 0
6:15 am 06:15 Clear 7 -14 -4 -20 61 61 WNW 7 11 30.74 1041 10 16.0934 0 0
6:35 am 06:35 Clear 7 -14.1 -4 -20 61 61 WNW 8 13 30.74 1041 10 16.0934 0 0
6:55 am 06:55 Clear 6 -14.2 -4 -20 62 62 WNW 9 15 30.74 1041 10 16.0934 0 0
7:15 am 07:15 Clear 6 -14.2 -4 -20.1 61 61 WNW 9 15 30.74 1041 10 16.0934 0 0
7:35 am 07:35 Clear 6 -14.2 -4 -19.8 63 63 WNW 12 19 30.74 1041 10 16.0934 0 0
7:55 am 07:55 Clear 7 -14.1 -4 -19.8 62 62 NW 7 11 30.77 1042 10 16.0934 0 0
8:15 am 08:15 Sunny 7 -13.7 -4 -19.8 60 60 NW 9 15 30.77 1042 10 16.0934 0 0
8:35 am 08:35 Sunny 8 -13.4 -3 -19.4 61 61 NW 13 20 30.74 1041 10 16.0934 0 0
8:55 am 08:55 Sunny 10 -12.5 -3 -19.6 56 56 NW 12 19 30.74 1041 10 16.0934 0 0
9:15 am 09:15 Sunny 11 -11.9 -3 -19.7 53 53 NW 14 22 30.74 1041 10 16.0934 0 0
9:35 am 09:35 Sunny 12 -11.2 -4 -19.9 49 49 NNW 14 22 30.74 1041 10 16.0934 0 0
9:55 am 09:55 Sunny 13 -10.6 -4 -20.2 46 46 NW 15 24 30.74 1041 10 16.0934 0 0
10:15 am 10:15 Sunny 13 -10.3 -5 -20.5 43 43 NNW 13 20 30.74 1041 10 16.0934 0 0
10:35 am 10:35 Sunny 14 -10 -6 -21 41 41 NNW 15 24 30.74 1041 10 16.0934 0 0
10:55 am 10:55 Sunny 15 -9.5 -5 -20.7 40 40 NW 12 19 30.74 1041 10 16.0934 0 0
11:15 am 11:15 Sunny 15 -9.2 -4 -19.9 42 42 NW 14 22 30.71 1040 10 16.0934 0 0
11:35 am 11:35 Sunny 17 -8.6 -3 -19.6 41 41 NNW 12 19 30.71 1040 10 16.0934 0 0
11:55 am 11:55 Sunny 17 -8.1 -1 -18.6 43 43 WNW 13 20 30.71 1040 10 16.0934 0 0
12:15 pm 12:15 Sunny 18 -7.6 0 -17.6 45 45 NW 10 17 30.65 1038 10 16.0934 0 0
12:35 pm 12:35 Sunny 19 -7.4 2 -16.8 47 47 WNW 8 13 30.65 1038 10 16.0934 0 0
12:55 pm 12:55 Sunny 20 -6.8 3 -16.1 48 48 WNW 7 11 30.65 1038 10 16.0934 0 0
1:15 pm 13:15 Sunny 21 -6.2 3 -16.1 46 46 W 9 15 30.65 1038 10 16.0934 0 0
1:35 pm 13:35 Sunny 21 -6 3 -16.2 45 45 WNW 9 15 30.62 1037 10 16.0934 0 0
1:55 pm 13:55 Sunny 22 -5.5 3 -16 44 44 WNW 12 19 30.59 1036 10 16.0934 0 0
2:15 pm 14:15 Sunny 21 -6 2 -16.8 43 43 WNW 10 17 30.62 1037 10 16.0934 0 0
2:35 pm 14:35 Sunny 22 -5.5 3 -16.1 43 43 WNW 9 15 30.59 1036 10 16.0934 0 0
2:55 pm 14:55 Sunny 22 -5.7 3 -16.3 43 43 WNW 8 13 30.62 1037 10 16.0934 0 0
3:15 pm 15:15 Sunny 22 -5.5 3 -16.1 43 43 WNW 8 13 30.56 1035 10 16.0934 0 0
3:35 pm 15:35 Sunny 22 -5.5 2 -16.6 42 42 WNW 8 13 30.56 1035 10 16.0934 0 0
3:55 pm 15:55 Sunny 22 -5.5 2 -16.8 41 41 WNW 8 13 30.56 1035 10 16.0934 0 0
4:15 pm 16:15 Sunny 22 -5.5 0 -17.6 38 38 WNW 8 13 30.56 1035 10 16.0934 0 0
4:35 pm 16:35 Sunny 22 -5.5 0 -17.8 38 38 WNW 6 9 30.56 1035 10 16.0934 0 0
4:55 pm 16:55 Sunny 22 -5.8 1 -17 41 41 WNW 5 7 30.59 1036 10 16.0934 0 0
5:15 pm 17:15 Sunny 20 -6.4 3 -16.3 46 46 NW 3 6 30.59 1036 10 16.0934 0 0
5:35 pm 17:35 Clear 19 -7 2 -16.6 47 47 Calm 30.59 1036 10 16.0934 0 0
5:55 pm 17:55 Clear 17 -8.4 3 -16 55 55 Calm 30.59 1036 10 16.0934 0 0
6:15 pm 18:15 Clear 16 -8.9 3 -16.3 55 55 Calm 30.62 1037 10 16.0934 0 0
6:35 pm 18:35 Clear 16 -8.9 3 -16.3 55 55 Calm 30.59 1036 10 16.0934 0 0
6:55 pm 18:55 Clear 15 -9.5 2 -16.4 58 58 Calm 30.59 1036 10 16.0934 0 0
7:15 pm 19:15 Clear 15 -9.2 4 -15.8 59 59 Calm 30.59 1036 10 16.0934 0 0
7:35 pm 19:35 Clear 14 -9.8 3 -15.9 61 61 SSW 3 6 30.59 1036 10 16.0934 0 0
7:55 pm 19:55 Clear 14 -9.9 3 -16 61 61 SW 6 9 30.59 1036 10 16.0934 0 0
8:15 pm 20:15 Clear 13 -10.5 3 -16 64 64 SSW 5 7 30.59 1036 10 16.0934 0 0
8:35 pm 20:35 Clear 13 -10.6 3 -16 65 65 SSW 5 7 30.56 1035 10 16.0934 0 0
8:55 pm 20:55 Clear 13 -10.5 3 -16.1 64 64 S 5 7 30.56 1035 10 16.0934 0 0
9:15 pm 21:15 Clear 13 -10.8 2 -16.4 64 64 S 5 7 30.56 1035 10 16.0934 0 0
9:35 pm 21:35 Clear 10 -12 2 -16.7 68 68 S 3 6 30.56 1035 10 16.0934 0 0
9:55 pm 21:55 Clear 10 -12.1 2 -16.6 69 69 S 3 6 30.53 1034 10 16.0934 0 0
10:15 pm 22:15 Clear 10 -12.1 2 -16.6 69 69 S 6 9 30.53 1034 10 16.0934 0 0
10:35 pm 22:35 Clear 11 -11.9 3 -16.3 70 70 S 7 11 30.53 1034 10 16.0934 0 0
10:55 pm 22:55 Clear 12 -11.2 3 -16 68 68 S 6 9 30.5 1033 10 16.0934 0 0
11:15 pm 23:15 Clear 13 -10.5 4 -15.5 67 67 S 6 9 30.5 1033 10 16.0934 0 0
11:35 pm 23:35 Clear 12 -11 4 -15.7 69 69 S 7 11 30.48 1032 10 16.0934 0 0
11:55 pm 23:55 Clear 13 -10.8 4 -15.5 69 69 S 8 13 30.48 1032 10 16.0934 0 0

Powered by AerisWeather